User: anonymous   Login
Location: Deer Lake
(49.1830°N, 57.4330°W)
Time: 08:20:28
(UTC-02:-30)
Language:

Cosmos 1707 - Orbit

View from above orbital plane
View from above orbital plane
View from above satellite
View from above satellite

Ground track
Ground track

The orbit data is extracted from the following two-line orbital elements,

1 16326U 85113A   17204.46446469 +.00000875 +00000-0 +47331-4 0  9995
2 16326 082.5118 172.7138 0010964 167.1113 193.0401 15.13322168722836
Epoch (UTC): 23 July 2017 11:08:49
Eccentricity: 0.0010964
inclination: 82.5118°
perigee height: 518 km
apogee height: 533 km
right ascension of ascending node: 172.7138°
argument of perigee: 167.1113°
revolutions per day: 15.13322168
mean anomaly at epoch: 193.0401°
orbit number at epoch: 72283

The dashed part of the orbit path shows where the satellite is in the earth's shadow,  

DLR